Weather History for Springfield, MO

Change the Weather History Date:

Wednesday, September 25, 2013

  Actual Average Record
Temperature  
Mean Temperature 67 °F 65 °F  
Max Temperature 79 °F 76 °F 95 °F (1939)
Min Temperature 54 °F 54 °F 36 °F (1989)
Degree Days  
Heating Degree Days 0 3  
Month to date heating degree days 13 32  
Since 1 July heating degree days 13 34  
Cooling Degree Days 2 3  
Month to date cooling degree days 211 158  
Year to date cooling degree days 1354 1344  
Growing Degree Days 16 (Base 50)    
Moisture  
Dew Point 57 °F    
Average Humidity 71    
Maximum Humidity 93    
Minimum Humidity 48    
Precipitation  
Precipitation 0.00 in 0.16 in 3.27 in (1993)
Month to date precipitation 1.85 3.87  
Year to date precipitation 40.00 33.98  
Snow  
Snow 0.00 in - - ()
Month to date snowfall 0.0  
Since 1 July snowfall 0.0  
Since 1 September snowfall 0.0  
Snow Depth 0.00 in    
Sea Level Pressure  
Sea Level Pressure 29.85 in    
Wind  
Wind Speed 4 mph (North)    
Max Wind Speed 10 mph    
Max Gust Speed 14 mph    
Visibility 10 miles    
Events      
T = Trace of Precipitation, MM = Missing Value Source: NWS Daily Summary

Daily Weather History Graph

Daily Weather History Graph

Search for Another Location

Airport:

Trip Planner

Search our weather history database for the weather conditions in past years. The results will help you decide how hot, cold, wet, or windy it might be!

Date:

Astronomy

Sep. 25, 2013 Rise Set
Actual Time 7:04 AM CDT 7:05 PM CDT
Civil Twilight 6:38 AM CDT 7:31 PM CDT
Nautical Twilight 6:07 AM CDT 8:01 PM CDT
Astronomical Twilight 5:37 AM CDT 8:32 PM CDT
Moon 11:19 PM CDT (9/25) 1:03 PM CDT (9/25)
Length of Visible Light 12h 53m
Length of Day
12h 01m
Waning Gibbous, 64% of the Moon is Illuminated
Sep 25
Waning Gibbous
Sep 26
Last Quarter
Oct 4
New
Oct 11
First Quarter
Oct 18
Full

Hourly Weather History & Observations

Time (CDT) Temp. Dew Point Humidity Pressure Visibility Wind Dir Wind Speed Gust Speed Precip Events Conditions
12:52 AM 60.1 °F 55.0 °F 83% 29.83 in 10.0 mi WNW 3.5 mph - N/A   Clear
1:52 AM 59.0 °F 55.0 °F 87% 29.82 in 10.0 mi WNW 4.6 mph - N/A   Clear
2:52 AM 59.0 °F 55.0 °F 87% 29.82 in 10.0 mi WNW 3.5 mph - N/A   Clear
3:52 AM 57.9 °F 55.0 °F 90% 29.82 in 10.0 mi Calm Calm - N/A   Clear
4:52 AM 55.0 °F 53.1 °F 93% 29.83 in 9.0 mi Calm Calm - N/A   Clear
5:52 AM 55.9 °F 53.1 °F 90% 29.83 in 10.0 mi Calm Calm - N/A   Clear
6:52 AM 54.0 °F 52.0 °F 93% 29.86 in 8.0 mi West 3.5 mph - N/A   Clear
7:52 AM 57.9 °F 55.0 °F 90% 29.86 in 7.0 mi Calm Calm - N/A   Clear
8:52 AM 61.0 °F 57.9 °F 90% 29.87 in 8.0 mi NW 5.8 mph - N/A   Clear
9:52 AM 64.9 °F 59.0 °F 81% 29.87 in 10.0 mi Calm Calm - N/A   Clear
10:52 AM 69.1 °F 60.1 °F 73% 29.88 in 10.0 mi Calm Calm - N/A   Clear
11:52 AM 73.0 °F 60.1 °F 64% 29.88 in 10.0 mi NNW 4.6 mph - N/A   Clear
12:52 PM 75.0 °F 60.1 °F 60% 29.86 in 10.0 mi WNW 5.8 mph - N/A   Partly Cloudy
1:52 PM 77.0 °F 60.1 °F 56% 29.85 in 10.0 mi North 10.4 mph - N/A   Partly Cloudy
2:52 PM 78.1 °F 57.0 °F 48% 29.83 in 10.0 mi Variable 4.6 mph - N/A   Partly Cloudy
3:52 PM 75.9 °F 57.9 °F 54% 29.83 in 10.0 mi Calm Calm - N/A   Scattered Clouds
4:52 PM 75.9 °F 57.9 °F 54% 29.83 in 10.0 mi ESE 6.9 mph - N/A   Mostly Cloudy
5:52 PM 77.0 °F 57.9 °F 52% 29.83 in 10.0 mi ENE 10.4 mph - N/A   Mostly Cloudy
6:52 PM 73.9 °F 57.9 °F 57% 29.83 in 10.0 mi East 5.8 mph - N/A   Scattered Clouds
7:52 PM 69.1 °F 57.9 °F 68% 29.84 in 10.0 mi ESE 4.6 mph - N/A   Clear
8:52 PM 66.9 °F 59.0 °F 76% 29.85 in 10.0 mi Calm Calm - N/A   Clear
9:52 PM 64.0 °F 59.0 °F 84% 29.85 in 10.0 mi SE 5.8 mph - N/A   Clear
10:52 PM 64.0 °F 59.0 °F 84% 29.86 in 10.0 mi SE 5.8 mph - N/A   Clear
11:52 PM 62.1 °F 57.9 °F 86% 29.86 in 10.0 mi SE 5.8 mph - N/A   Clear